{"data":{"norad_id":53466,"intl_designator":"2022-099B","name":"STARLINK-4398","alt_names":[],"object_type":"PAYLOAD","status":"ACTIVE","operator":null,"country":"US","launch_date":"2022-08-12","launch_site_code":"AFWTR","launch_vehicle":null,"mission":null,"orbit_class":"UNKNOWN","rcs_meters":null,"size_class":null,"mass_kg":null,"dimensions":null,"purposes":["comms"],"wikipedia_slug":null,"has_3d_model":false,"image_url":null,"decayed_at":null,"tle_current":{"epoch":"2026-09-19T20:37:10.896960Z","epoch_age_seconds":130829,"freshness":"FRESH","line1":"1 53466U 22099B   26262.85915390  .00000558  00000+0  17731-4 0  9994","line2":"2 53466  97.4744  29.7188 0000675 144.8418 215.2871 15.36966666225755","mean_motion":15.36966666,"eccentricity":6.75e-5,"inclination_deg":97.4744,"raan_deg":29.7188,"arg_perigee_deg":144.8418,"mean_anomaly_deg":215.2871,"bstar":1.7731e-5,"rev_number":22575,"period_min":93.69103649773,"perigee_km":454.6239437144,"apogee_km":455.54642870954,"semimajor_km":6833.222186212,"source":"CELESTRAK","updated_at":"2026-09-20T09:00:40.234791Z"}}}